This is the latest recevied weather packets stored in our database for station/object KG5APU. If no packets are shown the sender has not sent any weather packets the latest 10 day(s).
| Time | Temp. | Humidity | Pressure | Rain* | Wind** | Luminosity | Snow |
|---|---|---|---|---|---|---|---|
| 1777122069 | 19.44° C | 95% | 1008.7 hPa | 0 mm | - | 75 W/m² | - |
| 1777121469 | 18.89° C | 96% | 1008.7 hPa | 0 mm | - | 51 W/m² | - |
| 1777120866 | 18.89° C | 97% | 1008.6 hPa | 0 mm | - | 35 W/m² | - |
| 1777120264 | 18.33° C | 97% | 1008.6 hPa | 0 mm | - | 31 W/m² | - |
| 1777119662 | 17.78° C | 97% | 1008.3 hPa | 0 mm | - | 20 W/m² | - |
| 1777119058 | 17.78° C | 97% | 1008.5 hPa | 0 mm | - | 14 W/m² | - |
| 1777118456 | 17.78° C | 97% | 1008.4 hPa | 0 mm | - | 8 W/m² | - |
| 1777117854 | 17.22° C | 97% | 1008.4 hPa | 0 mm | - | 4 W/m² | - |
| 1777117249 | 17.22° C | 97% | 1008.4 hPa | 0 mm | - | 1 W/m² | - |
| 1777116645 | 17.22° C | 97% | 1008.1 hPa | 0 mm | - | 0 W/m² | - |
| 1777116043 | 17.22° C | 97% | 1008.4 hPa | 0 mm | - | 0 W/m² | - |
| 1777115439 | 17.22° C | 97% | 1007.9 hPa | 0 mm | - | 0 W/m² | - |
| 1777114838 | 17.22° C | 97% | 1008.3 hPa | 0 mm | - | 0 W/m² | - |
| 1777114235 | 17.22° C | 97% | 1008 hPa | 0 mm | - | 0 W/m² | - |
| 1777113633 | 17.22° C | 97% | 1007.9 hPa | 0 mm | - | 0 W/m² | - |
| 1777113032 | 17.22° C | 97% | 1007.8 hPa | 0 mm | - | 0 W/m² | - |
| 1777112430 | 17.22° C | 97% | 1007.6 hPa | 0 mm | - | 0 W/m² | - |
| 1777111829 | 17.22° C | 97% | 1007.6 hPa | 0 mm | - | 0 W/m² | - |
| 1777111227 | 17.78° C | 97% | 1007.3 hPa | 0 mm | - | 0 W/m² | - |
| 1777110626 | 17.78° C | 97% | 1007.2 hPa | 0 mm | - | 0 W/m² | - |
| 1777110022 | 17.78° C | 97% | 1007.3 hPa | 0 mm | - | 0 W/m² | - |
| 1777109420 | 17.78° C | 97% | 1007.4 hPa | 0 mm | - | 0 W/m² | - |
| 1777108815 | 17.78° C | 97% | 1007.3 hPa | 0 mm | - | 0 W/m² | - |
| 1777108214 | 17.78° C | 97% | 1007.2 hPa | 0 mm | - | 0 W/m² | - |
| 1777107612 | 17.78° C | 97% | 1007.1 hPa | 0 mm | - | 0 W/m² | - |
* Rain latest hour (hover to see other rain measurements)
** Current wind speed in m/s (hover to see current wind gust speed)